Klawock, AK

9:25 AM AKDT on September 26, 2017 (GMT -0800)
Klawock

Weather History for PAKW - September, 2012

Change the Weather History Date:

Sunday, September 2, 2012

  Actual Average Record
Temperature  
Mean Temperature 52 °F -  
Max Temperature 57 °F 59 °F 69 °F (2013)
Min Temperature 48 °F 47 °F 39 °F (2015)
Degree Days  
Heating Degree Days 12    
Growing Degree Days 2 (Base 50)    
Moisture  
Dew Point 51 °F    
Average Humidity 93    
Maximum Humidity 100    
Minimum Humidity 77    
Precipitation  
Precipitation 0.45 in - - ()
Sea Level Pressure  
Sea Level Pressure 30.12 in    
Wind  
Wind Speed 2 mph (SSW)    
Max Wind Speed 7 mph    
Max Gust Speed -    
Visibility 7 miles    
Events Rain    
Averages and records for this station are not official NWS values.
T = Trace of Precipitation, MM = Missing Value Source: NWS Daily Summary

Daily Weather History Graph

Daily Weather History Graph

Search for Another Location

Airport or City:

Trip Planner

Search our weather history database for the weather conditions in past years. The results will help you decide how hot, cold, wet, or windy it might be!

Date:

Astronomy

Sep. 02, 2012 Rise Set
Actual Time 6:00 AM AKDT 7:41 PM AKDT
Civil Twilight 5:21 AM AKDT 8:20 PM AKDT
Nautical Twilight 4:33 AM AKDT 9:07 PM AKDT
Astronomical Twilight 3:38 AM AKDT 10:02 PM AKDT
Moon 7:52 PM AKDT (9/2) 8:52 AM AKDT (9/2)
Length of Visible Light 14h 58m
Length of Day
13h 40m
Waning Gibbous, 95% of the Moon is Illuminated
Sep 2
Waning Gibbous
Sep 8
Last Quarter
Sep 15
New
Sep 22
First Quarter
Sep 29
Full

Hourly Weather History & Observations

Time (AKDT) Temp. Dew Point Humidity Pressure Visibility Wind Dir Wind Speed Gust Speed Precip Events Conditions
12:22 AM 51.8 °F 51.8 °F 100% 29.98 in 10.0 mi Calm Calm - 0.01 in   Overcast
12:53 AM 52.0 °F 52.0 °F 100% 30.00 in 6.0 mi Calm Calm - 0.01 in Rain Light Rain
1:53 AM 52.0 °F 51.1 °F 97% 30.01 in 7.0 mi Calm Calm - 0.01 in Rain Light Rain
2:17 AM 51.8 °F 51.8 °F 100% 30.02 in 10.0 mi Calm Calm - 0.01 in   Overcast
2:53 AM 53.1 °F 51.1 °F 93% 30.03 in 10.0 mi South 3.5 mph - 0.01 in   Overcast
3:33 AM 51.8 °F 50.0 °F 94% 30.03 in 10.0 mi Calm Calm - N/A   Mostly Cloudy
3:53 AM 51.1 °F 50.0 °F 96% 30.04 in 10.0 mi Calm Calm - 0.00 in Rain Light Rain
4:53 AM 51.1 °F 50.0 °F 96% 30.06 in 9.0 mi SSE 3.5 mph - 0.05 in Rain Light Rain
5:53 AM 50.0 °F 48.9 °F 96% 30.08 in 10.0 mi Calm Calm - 0.00 in   Mostly Cloudy
6:53 AM 48.9 °F 48.0 °F 97% 30.09 in 7.0 mi Calm Calm - N/A   Clear
7:53 AM 51.1 °F 50.0 °F 96% 30.11 in 7.0 mi Calm Calm - 0.00 in Rain Light Rain
8:09 AM 51.8 °F 51.8 °F 100% 30.11 in 7.0 mi South 3.5 mph - 0.01 in Rain Light Rain
8:17 AM 51.8 °F 51.8 °F 100% 30.12 in 10.0 mi Calm Calm - 0.01 in Rain Light Rain
8:53 AM 55.0 °F 51.1 °F 86% 30.12 in 10.0 mi Calm Calm - 0.01 in   Mostly Cloudy
9:53 AM 54.0 °F 52.0 °F 93% 30.14 in 10.0 mi West 3.5 mph - 0.00 in   Overcast
10:13 AM 55.4 °F 51.8 °F 88% 30.14 in 10.0 mi SSW 4.6 mph - N/A   Mostly Cloudy
10:53 AM 55.9 °F 51.1 °F 84% 30.15 in 10.0 mi Calm Calm - N/A   Overcast
11:53 AM 57.0 °F 52.0 °F 83% 30.15 in 10.0 mi SSW 5.8 mph - 0.01 in   Mostly Cloudy
12:53 PM 57.0 °F 52.0 °F 83% 30.16 in 10.0 mi SW 6.9 mph - 0.00 in   Overcast
1:53 PM 57.0 °F 50.0 °F 77% 30.17 in 10.0 mi SSW 5.8 mph - 0.00 in   Overcast
2:53 PM 55.9 °F 51.1 °F 84% 30.17 in 9.0 mi SW 3.5 mph - 0.00 in Rain Light Rain
3:03 PM 55.4 °F 51.8 °F 88% 30.17 in 10.0 mi SW 5.8 mph - 0.00 in Rain Light Rain
3:53 PM 54.0 °F 52.0 °F 93% 30.17 in 4.0 mi South 4.6 mph - 0.04 in Rain Rain
4:11 PM 53.6 °F 51.8 °F 94% 30.16 in 4.0 mi Calm Calm - 0.03 in Rain Light Rain
4:50 PM 53.6 °F 51.8 °F 94% 30.16 in 5.0 mi Calm Calm - 0.06 in Rain Light Rain
4:53 PM 53.1 °F 52.0 °F 96% 30.16 in 5.0 mi SSW 3.5 mph - 0.07 in Rain Light Rain
5:53 PM 53.1 °F 51.1 °F 93% 30.15 in 6.0 mi Variable 5.8 mph - 0.02 in Rain Light Rain
6:37 PM 53.6 °F 51.8 °F 94% 30.14 in 2.5 mi Variable 4.6 mph - 0.02 in Rain Light Rain
6:45 PM 53.6 °F 50.0 °F 88% 30.14 in 4.0 mi Variable 4.6 mph - 0.02 in Rain Light Rain
6:53 PM 53.1 °F 51.1 °F 93% 30.14 in 4.0 mi Variable 4.6 mph - 0.02 in Rain Light Rain
7:21 PM 53.6 °F 51.8 °F 94% 30.14 in 10.0 mi Variable 5.8 mph - 0.01 in Rain Light Rain
7:53 PM 53.1 °F 51.1 °F 93% 30.14 in 5.0 mi SSW 4.6 mph - 0.02 in Rain Light Rain
8:53 PM 53.1 °F 52.0 °F 96% 30.15 in 4.0 mi South 4.6 mph - 0.02 in Rain Light Rain
9:12 PM 53.6 °F 51.8 °F 94% 30.15 in 4.0 mi Variable 4.6 mph - 0.02 in Rain Light Rain
9:53 PM 54.0 °F 52.0 °F 93% 30.15 in 7.0 mi SSE 5.8 mph - 0.05 in Rain Light Rain
10:53 PM 53.1 °F 52.0 °F 96% 30.15 in 3.0 mi Variable 4.6 mph - 0.05 in Rain Light Rain
11:05 PM 53.6 °F 53.6 °F 100% 30.15 in 4.0 mi South 3.5 mph - 0.01 in Rain Light Rain
11:53 PM 54.0 °F 53.1 °F 97% 30.16 in 7.0 mi SSW 4.6 mph - 0.06 in Rain Light Rain